GFSFLT2_925_temp_159.txt.gz
Temp
15 14 15 15 16 17 17 17 17 17 17 18 20 19 19 19 19 20 20 20 19 19 19 19 19 19 19 19 19 20 20 22
15 14 14 15 16 16 17 17 17 16 16 17 18 20 19 20 19 19 20 20 20 19 19 19 19 19 19 19 19 19 19 21
14 14 14 15 17 16 16 16 16 16 16 17 17 17 17 18 18 19 19 19 20 20 19 19 19 19 19 19 19 19 21 22
15 13 13 14 16 16 16 17 16 15 15 14 15 16 17 17 17 19 19 19 19 19 19 19 19 19 21 20 18 20 22 23
14 12 11 12 14 15 15 16 15 15 15 13 14 15 16 17 17 17 17 17 18 18 19 19 19 21 22 22 21 21 22 23
13 12 11 11 12 13 14 14 14 14 14 13 13 14 14 14 16 16 17 17 17 17 17 19 20 20 22 22 23 23 23 23
12 11 11 11 11 11 12 12 12 12 13 12 11 12 13 13 13 14 16 17 17 17 16 17 17 19 21 22 22 22 22 23
11 11 10 10 10 10 11 11 11 12 12 11 10 10 10 11 12 14 15 15 16 16 16 15 17 17 18 20 21 22 22 22
11 11 10 10 10 10 11 11 11 11 11 11 9 9 9 9 11 12 13 13 12 14 15 16 17 17 18 18 19 20 22 22
11 10 10 10 10 10 11 10 11 11 11 11 9 9 8 8 10 11 10 10 10 11 13 15 16 17 17 18 18 19 20 20
10 10 9 9 10 10 11 11 11 11 11 10 8 8 7 6 8 8 7 8 8 9 10 11 11 11 14 16 18 18 19 19
10 9 9 9 10 11 11 11 11 10 10 8 8 8 7 5 6 6 6 6 7 6 6 7 9 9 11 14 17 17 17 18
9 9 9 9 10 10 10 10 10 10 9 8 8 7 6 6 5 5 5 5 5 5 6 7 7 9 11 12 16 18 18 18
9 9 8 8 8 9 8 9 9 9 9 8 7 7 6 6 4 4 4 3 4 4 5 5 6 7 9 9 15 18 19 18
9 8 8 7 6 8 8 9 9 9 8 8 6 6 5 5 4 3 3 3 3 3 3 4 4 4 6 8 13 18 21 20
8 8 7 6 6 6 6 7 7 7 7 6 6 6 5 4 3 2 2 2 2 2 2 2 3 4 4 6 7 7 12 18
7 7 7 6 5 5 5 5 5 5 5 5 5 5 5 4 2 2 1 1 1 1 1 1 2 3 4 4 5 6 8 13
7 6 6 5 4 4 4 4 4 4 4 4 4 4 4 3 1 1 1 1 0 0 1 1 2 2 2 4 5 7 8 9
6 6 6 4 4 5 4 4 4 3 3 2 2 2 2 2 1 1 1 0 0 0 0 1 1 1 1 2 3 5 6 9
6 5 5 4 4 4 4 4 4 3 2 2 2 2 1 1 0 0 0 -0 -0 -0 0 0 0 -1 -0 2 3 4 6 7

GFSFLT2_925_temp_162.txt.gz
Temp
15 15 15 16 16 17 17 17 17 17 17 17 18 19 19 19 20 20 20 20 19 20 19 19 19 19 19 19 19 20 20 21
15 15 15 16 17 17 16 16 16 16 16 17 18 18 19 18 19 20 19 19 19 19 19 19 19 19 19 19 19 19 19 20
14 14 14 16 17 17 17 16 16 16 15 16 16 17 17 17 18 18 19 20 19 19 19 19 19 19 19 19 19 19 19 20
14 13 13 14 16 16 16 16 15 15 14 14 14 15 15 16 16 18 18 19 19 19 19 18 19 18 18 19 20 20 19 20
14 12 12 12 14 14 14 14 14 14 14 13 12 13 14 14 14 15 16 17 17 18 17 17 17 18 19 20 21 21 20 20
13 12 11 11 12 12 13 12 12 13 13 12 11 11 11 12 12 13 14 15 16 17 17 17 17 17 18 19 19 19 22 21
12 12 11 11 11 11 12 11 12 13 12 11 10 10 10 10 11 12 13 14 14 13 14 15 15 16 17 18 19 19 18 21
12 11 11 11 11 12 12 11 12 12 12 11 9 9 9 9 10 11 12 11 11 12 12 13 15 16 16 17 17 19 18 17
12 12 10 11 11 11 12 11 12 12 11 10 9 9 8 7 8 9 9 9 9 10 10 11 12 13 14 16 16 17 18 20
11 11 10 11 10 11 11 11 11 11 11 10 8 8 7 7 7 7 7 7 8 8 8 7 8 9 11 11 13 14 16 18
11 10 10 10 11 11 12 12 11 11 10 9 8 8 7 6 7 6 6 6 7 6 6 6 7 7 8 11 12 12 14 16
11 10 9 10 11 11 11 11 11 11 10 9 8 7 7 6 5 5 5 4 4 4 5 5 6 7 8 8 9 11 13 14
10 10 9 9 10 10 10 10 10 10 10 9 7 7 6 6 5 4 4 4 4 4 4 4 5 5 6 7 8 10 13 14
10 10 9 8 8 9 8 9 10 10 9 8 7 6 6 5 4 3 3 3 3 3 2 3 4 4 4 5 9 11 14 13
10 9 9 7 7 8 8 9 9 8 7 7 7 6 5 5 3 2 2 2 2 2 2 2 2 3 4 5 7 9 8 10
9 9 8 7 6 6 6 6 6 6 6 6 6 5 5 4 2 2 2 1 1 1 1 1 1 2 3 4 4 4 6 8
8 8 7 6 5 5 5 5 5 5 5 5 4 4 4 3 2 1 1 1 1 1 1 1 1 1 2 2 3 4 5 6
7 7 6 5 5 5 5 5 5 5 4 3 3 3 3 2 1 1 0 0 0 0 0 0 1 1 1 1 1 3 4 5
7 7 6 5 5 5 5 5 5 4 3 3 3 2 2 2 1 0 -0 -0 -1 -1 -1 -0 0 0 -0 -1 -0 -0 2 4
6 6 5 4 4 5 5 4 4 4 3 2 2 2 1 1 -0 -1 -1 -1 -1 -1 -1 -1 -0 -1 -1 -1 -2 -1 -0 -1

GFSFLT2_925_temp_168.txt.gz
Temp
15 16 16 16 16 16 16 16 16 17 17 17 17 17 17 17 17 17 17 16 16 17 18 18 18 18 19 19 19 19 19 19
15 16 16 15 15 15 15 15 15 16 17 17 17 17 17 16 16 16 16 16 16 16 16 16 17 17 17 18 18 18 19 20
14 15 15 15 15 15 15 14 14 15 16 16 17 16 16 16 15 15 15 15 15 16 16 16 16 16 17 17 17 18 18 19
13 13 14 14 14 14 14 13 13 13 14 14 14 14 14 14 14 14 14 14 14 14 15 15 16 15 16 16 16 17 17 18
12 12 12 13 13 13 13 12 12 12 12 12 12 13 12 12 12 13 12 13 13 13 14 14 14 14 15 15 15 15 16 17
12 12 12 12 12 12 12 11 11 11 11 11 11 11 10 10 9 10 10 10 10 10 10 11 12 12 12 14 15 15 15 16
11 11 11 11 12 12 11 11 10 10 9 9 10 10 9 8 8 8 8 7 7 8 8 9 9 10 11 11 13 14 15 15
11 11 11 11 11 11 11 11 10 10 9 8 8 8 8 8 7 7 6 6 6 6 6 6 7 7 8 9 11 12 13 14
11 11 11 11 11 11 11 10 10 9 9 8 8 7 7 6 6 6 5 5 5 5 4 4 5 5 6 8 9 11 12 13
10 10 10 11 11 11 10 10 9 9 8 8 7 7 6 6 5 4 4 4 3 3 3 3 3 3 4 6 8 8 9 9
10 10 10 10 10 10 10 9 8 8 7 7 6 6 5 5 4 3 3 3 2 2 2 2 2 2 3 4 7 8 8 8
9 9 9 9 10 10 9 8 7 7 6 6 6 5 4 4 3 2 2 2 1 1 1 1 2 2 2 4 7 9 8 7
8 9 8 9 9 9 7 6 6 6 6 5 5 4 4 3 2 2 1 1 1 1 1 1 1 2 2 3 6 8 8 7
8 7 7 7 7 7 7 6 5 5 5 4 4 3 3 2 1 1 1 1 0 0 1 1 1 1 2 3 4 5 8 8
7 7 6 6 6 7 6 6 5 4 4 3 3 2 2 1 0 0 0 0 -0 -0 0 1 1 1 2 2 3 3 3 5
7 6 6 5 5 5 5 4 3 3 3 3 2 1 1 0 -0 -0 -1 -1 -1 -1 -0 -0 0 1 1 0 0 0 2 3
6 6 5 5 5 5 4 4 3 3 2 2 1 1 -0 -1 -1 -1 -2 -2 -1 -1 -1 -1 -1 -1 -0 -0 -0 -0 1 -0
6 5 5 5 4 4 4 3 3 2 1 1 0 -0 -1 -2 -2 -2 -2 -2 -2 -2 -2 -1 -1 -1 -1 -1 -1 -1 -1 -1
5 5 4 4 4 4 3 3 2 1 1 -0 -1 -1 -2 -3 -3 -3 -3 -3 -2 -2 -2 -2 -2 -2 -2 -2 -2 -2 -2 -2
4 4 3 3 3 2 2 2 1 0 -0 -1 -2 -2 -3 -3 -3 -3 -4 -3 -3 -2 -3 -3 -3 -3 -3 -3 -3 -3 -4 -4

GFSFLT2_925_temp_171.txt.gz
Temp
16 16 15 15 15 15 15 15 16 16 16 16 16 16 16 16 16 16 16 16 17 17 17 17 17 17 17 17 18 18 18 18
15 15 15 15 14 14 14 14 14 15 16 16 16 16 15 15 15 14 15 15 15 16 16 17 17 16 17 17 17 17 18 18
15 15 14 14 14 13 13 13 14 15 15 15 16 15 15 14 12 13 13 14 14 14 15 15 16 16 17 17 17 17 17 17
14 14 13 13 13 13 13 13 14 15 15 15 14 14 13 13 13 13 13 13 13 13 14 14 15 15 16 16 16 16 17 17
12 13 12 13 12 12 12 12 13 13 13 13 14 13 13 12 12 12 12 12 12 12 12 13 12 13 14 14 14 15 15 16
12 12 12 12 12 12 11 11 11 11 11 11 12 12 11 10 10 10 10 10 10 10 10 10 11 11 12 13 13 14 14 14
11 11 11 11 11 11 10 10 10 9 9 10 10 9 9 9 8 8 8 8 8 9 9 9 9 10 10 11 11 13 13 13
11 11 11 11 10 10 10 9 9 9 8 8 8 8 8 8 8 7 6 6 6 6 7 8 8 9 10 10 11 10 11 11
10 10 10 11 10 9 9 9 9 8 8 8 7 7 7 7 6 6 5 5 5 5 5 6 7 7 9 9 9 9 9 9
10 10 10 10 10 9 9 8 8 7 7 7 6 6 6 6 5 5 4 4 4 3 3 3 3 4 6 9 9 8 7 8
10 10 10 10 9 9 8 7 7 6 6 6 5 5 5 5 4 3 3 3 2 2 2 2 1 2 4 7 8 8 7 8
9 9 9 9 8 8 7 6 6 5 5 4 4 4 4 4 3 2 2 1 1 1 1 1 1 1 3 6 8 7 7 7
9 9 8 9 8 7 6 5 5 5 4 4 3 3 3 2 2 2 1 0 0 0 0 1 1 1 2 3 7 7 6 7
8 8 8 8 8 6 6 5 4 3 3 3 2 2 2 1 1 0 -0 -0 -0 -0 0 0 1 1 1 1 2 4 6 6
7 7 6 6 7 6 5 4 4 3 2 2 1 1 1 0 -0 -0 -1 -1 -1 -1 -1 -0 0 0 1 0 1 2 2 4
7 6 6 5 6 6 5 4 2 2 1 1 1 0 -0 -0 -1 -1 -1 -1 -1 -1 -1 -1 -1 -0 0 0 0 -0 1 1
6 5 5 5 5 4 4 3 2 2 1 0 -0 -1 -1 -1 -2 -2 -2 -2 -2 -2 -2 -2 -2 -1 -2 -1 -1 -1 0 -1
5 5 4 4 4 4 3 2 2 1 0 -0 -1 -2 -2 -2 -3 -3 -3 -2 -2 -2 -2 -2 -2 -2 -3 -3 -3 -1 -2 -2
4 4 4 3 3 3 2 2 1 0 -1 -1 -2 -3 -3 -3 -3 -3 -3 -3 -2 -2 -3 -3 -3 -3 -4 -4 -3 -4 -4 -4
3 3 3 3 2 2 2 1 0 -1 -1 -2 -2 -3 -3 -4 -4 -4 -3 -3 -3 -3 -3 -4 -4 -4 -4 -4 -5 -5 -5 -5

GFSFLT2_925_temp_174.txt.gz
Temp
16 15 15 15 15 15 15 16 16 16 16 16 16 16 16 15 16 16 16 16 16 16 16 16 16 16 17 17 17 18 18 17
15 14 14 14 14 14 14 14 15 15 15 15 16 16 16 15 15 15 15 15 15 15 16 16 16 15 16 17 17 17 17 17
14 14 14 14 14 14 14 14 14 14 14 14 14 14 13 13 13 14 15 14 14 15 15 15 16 16 16 16 17 16 16 16
13 13 13 13 13 12 12 12 13 13 13 13 13 12 12 12 12 12 12 13 13 13 13 14 15 15 16 16 15 15 15 15
12 13 13 12 12 11 11 11 12 12 12 12 12 12 12 12 12 12 12 12 12 12 13 12 12 13 14 14 14 14 14 14
11 11 12 11 11 11 11 11 12 11 11 11 11 11 11 10 10 11 11 11 12 12 12 12 11 11 11 11 12 12 12 13
11 11 11 10 11 10 10 10 10 10 10 10 10 10 10 10 10 9 9 9 10 11 12 11 12 12 11 11 10 10 10 11
10 11 10 10 10 10 9 9 9 9 8 7 8 8 8 7 7 7 8 8 8 8 9 10 10 11 12 11 10 9 8 9
10 10 10 10 10 9 9 8 7 7 6 6 6 6 6 6 6 5 5 6 7 8 8 8 9 9 10 10 9 8 8 8
10 10 10 10 9 8 8 7 7 7 6 6 6 6 5 5 5 4 4 4 4 5 5 7 7 8 8 8 7 7 7 8
10 10 10 9 8 8 7 7 7 6 6 5 5 5 4 4 4 3 4 4 3 3 3 3 4 6 8 8 7 6 6 7
9 9 8 8 8 7 7 6 6 5 5 4 4 3 3 3 2 2 2 2 2 2 2 2 1 2 6 7 6 6 6 5
9 9 8 8 7 7 6 5 4 4 3 3 3 2 2 2 2 2 2 1 1 0 1 1 1 1 3 5 6 5 5 4
8 8 8 7 7 6 5 4 3 3 3 2 2 2 1 1 0 0 0 0 0 -0 -0 -0 0 1 -0 1 2 4 4 4
7 7 7 7 7 6 5 4 3 2 2 1 1 1 0 0 -0 -0 -1 -1 -1 -1 -1 -1 -1 -0 -0 -0 1 2 1 3
6 6 6 6 5 5 5 4 2 1 1 1 0 -0 -1 -1 -1 -1 -1 -1 -2 -2 -2 -2 -2 -1 -0 -1 -0 -0 0 1
6 5 5 5 5 5 4 3 2 1 1 0 -1 -1 -1 -1 -2 -2 -2 -2 -2 -2 -2 -2 -3 -3 -3 -3 -2 -0 -2 -1
5 5 4 4 4 4 4 3 1 1 -0 -0 -1 -1 -2 -2 -2 -2 -2 -3 -3 -3 -3 -3 -3 -4 -4 -3 -3 -3 -3 -3
4 4 3 3 3 3 2 2 1 0 -1 -1 -2 -2 -3 -3 -3 -3 -3 -3 -3 -3 -3 -4 -4 -4 -5 -5 -5 -5 -5 -4
3 3 3 3 3 2 1 1 0 -1 -1 -2 -3 -3 -3 -3 -3 -3 -3 -3 -3 -4 -4 -5 -5 -5 -5 -5 -6 -6 -6 -5

GFSFLT2_925_temp_180.txt.gz
Temp
14 14 14 14 14 13 14 13 14 15 15 15 15 16 16 15 15 15 15 15 16 16 17 17 17 17 17 16 16 16 17 19
13 14 14 13 12 15 15 15 15 15 15 15 15 14 14 14 12 15 16 16 16 16 16 17 16 16 16 17 17 16 16 16
13 14 14 13 13 13 13 14 14 14 13 14 13 12 12 12 13 14 14 14 15 15 16 15 16 15 16 16 16 18 16 17
15 14 14 13 13 13 12 12 11 11 11 11 11 11 11 11 11 13 13 14 13 13 13 13 13 15 15 15 16 15 16 16
14 13 13 14 13 14 13 13 12 11 10 10 10 11 11 11 12 12 11 12 12 12 13 12 11 12 13 13 13 14 16 15
14 13 12 12 13 13 13 12 12 11 9 9 10 11 11 10 11 11 11 11 11 11 12 11 11 11 11 11 12 12 14 14
13 13 12 12 12 12 11 11 11 10 10 8 9 10 10 10 10 10 10 10 10 11 11 11 11 11 11 11 11 11 11 12
13 12 12 12 11 11 11 10 10 9 9 8 7 8 8 9 9 9 9 9 9 10 9 10 11 11 12 11 11 11 11 11
12 12 11 11 10 10 10 9 9 9 8 7 6 7 7 8 9 9 8 8 8 9 10 10 11 12 12 12 11 11 11 11
13 12 11 11 10 10 10 9 9 8 8 7 6 6 6 7 8 7 6 8 8 9 9 10 11 11 11 11 11 11 10 11
12 11 11 10 9 9 8 8 8 8 7 7 5 5 5 7 7 6 6 7 7 8 9 8 10 10 11 11 11 11 11 10
12 11 10 10 9 9 8 8 8 7 7 6 5 5 5 6 6 5 6 7 7 6 7 8 9 8 10 10 10 10 9 9
11 10 10 10 10 10 10 9 8 7 6 5 4 4 4 5 6 5 6 6 5 5 6 8 8 7 11 12 11 9 9 9
11 10 9 10 11 10 9 8 7 6 5 4 4 3 3 4 4 4 4 5 5 4 5 6 8 6 8 10 14 12 10 9
11 11 10 10 9 8 7 6 6 7 6 5 3 3 2 2 3 3 4 4 4 4 4 4 7 6 5 7 11 12 9 9
10 10 10 9 8 9 9 10 10 7 6 4 3 2 2 2 2 2 2 3 3 3 3 3 4 5 6 5 4 5 7 10
10 9 9 8 8 9 8 9 7 6 5 4 3 2 1 1 1 1 2 2 2 1 2 2 3 3 3 3 4 5 4 6
9 9 9 8 8 7 7 7 7 6 5 5 4 3 2 1 1 1 1 1 1 1 1 1 1 2 2 1 1 2 2 3
9 9 8 7 7 6 6 6 5 5 5 5 4 3 2 1 1 1 1 0 0 0 0 1 0 1 1 1 0 -2 -2 -1
9 9 8 7 6 5 5 4 5 4 4 3 2 2 1 0 0 0 -0 -0 -0 0 0 0 -0 0 0 0 1 -1 -2 -2